Weather History for KYIP - December, 2013

Change the Weather History Date:

Saturday, December 14, 2013

  Actual Average (KDTW) Record (KDTW)
Temperature  
Mean Temperature 22 °F 30 °F  
Max Temperature 24 °F 36 °F 65 °F (1975)
Min Temperature 21 °F 24 °F -1 °F (1914)
Degree Days  
Heating Degree Days 42 35  
Month to date heating degree days 454  
Since 1 July heating degree days 1669  
Cooling Degree Days 0 0  
Month to date cooling degree days 0  
Year to date cooling degree days 803  
Moisture  
Dew Point 16 °F    
Average Humidity 77    
Maximum Humidity 82    
Minimum Humidity 62    
Precipitation  
Precipitation 0.00 in 0.08 in 1.35 in (1901)
Month to date precipitation 1.15  
Year to date precipitation 32.16  
Snow  
Snow 0.00 in 0.30 in 10.00 in (1922)
Month to date snowfall 3.5  
Since 1 July snowfall 5.1  
Snow Depth -    
Sea Level Pressure  
Sea Level Pressure 30.06 in    
Wind  
Wind Speed 13 mph (NE)    
Max Wind Speed 17 mph    
Max Gust Speed 23 mph    
Visibility 2 miles    
Events Snow    
T = Trace of Precipitation, MM = Missing Value Source: NWS Daily Summary

Daily Weather History Graph

Daily Weather History Graph

Search for Another Location

Airport or City:

Trip Planner

Search our weather history database for the weather conditions in past years. The results will help you decide how hot, cold, wet, or windy it might be!

Date:

Astronomy

Dec. 14, 2013 Rise Set
Actual Time 7:55 AM EST 5:02 PM EST
Civil Twilight 7:23 AM EST 5:34 PM EST
Nautical Twilight 6:48 AM EST 6:09 PM EST
Astronomical Twilight 6:14 AM EST 6:43 PM EST
Moon 3:25 PM EST (12/14) 5:13 AM EST (12/14)
Length of Visible Light 10h 10m
Length of Day
9h 07m
Waxing Gibbous, 93% of the Moon is Illuminated
Dec 14
Waxing Gibbous
Dec 17
Full
Dec 25
Last Quarter
Jan 1
New
Jan 7
First Quarter

Hourly Weather History & Observations

Time (EST) Temp. Windchill Dew Point Humidity Pressure Visibility Wind Dir Wind Speed Gust Speed Precip Events Conditions
12:53 AM 24.1 °F 12.5 °F 12.9 °F 62% 30.26 in 10.0 mi NE 12.7 mph - N/A   Overcast
1:39 AM 23.0 °F 10.6 °F 12.2 °F 63% 30.26 in 2.5 mi ENE 13.8 mph - 0.00 in Snow Light Snow
1:49 AM 23.0 °F 12.4 °F 12.2 °F 63% 30.25 in 3.0 mi ENE 10.4 mph - 0.00 in Snow Light Snow
1:53 AM 23.0 °F 12.4 °F 12.9 °F 65% 30.27 in 2.5 mi ENE 10.4 mph - 0.00 in Snow Light Snow
2:20 AM 23.0 °F 13.1 °F 14.0 °F 68% 30.24 in 4.0 mi ENE 9.2 mph - 0.00 in Snow Light Snow
2:31 AM 23.0 °F 12.4 °F 14.0 °F 68% 30.24 in 9.0 mi ENE 10.4 mph - 0.00 in   Overcast
2:53 AM 23.0 °F 10.6 °F 12.9 °F 65% 30.27 in 7.0 mi ENE 13.8 mph - 0.00 in Snow Light Snow
3:06 AM 23.0 °F 11.7 °F 14.0 °F 68% 30.24 in 1.8 mi NE 11.5 mph - 0.00 in Snow Light Snow
3:21 AM 21.2 °F 8.9 °F 15.8 °F 80% 30.24 in 2.5 mi NE 12.7 mph - 0.00 in Snow Light Snow
3:28 AM 21.2 °F 8.9 °F 15.8 °F 80% 30.23 in 2.5 mi NE 12.7 mph - 0.00 in Snow Light Snow
3:36 AM 21.2 °F 9.5 °F 15.8 °F 80% 30.23 in 2.0 mi NE 11.5 mph - 0.00 in Snow Light Snow
3:50 AM 21.2 °F 7.3 °F 15.8 °F 80% 30.23 in 3.0 mi ENE 16.1 mph - 0.00 in Snow Light Snow
3:53 AM 21.9 °F 9.8 °F 15.1 °F 75% 30.25 in 3.0 mi NE 12.7 mph - 0.00 in Snow Light Snow
4:39 AM 21.2 °F 8.3 °F 15.8 °F 80% 30.21 in 2.5 mi NE 13.8 mph - 0.00 in Snow Light Snow
4:53 AM 21.9 °F 10.4 °F 15.1 °F 75% 30.22 in 3.0 mi NE 11.5 mph - 0.00 in Snow Light Snow
5:00 AM 21.2 °F 8.9 °F 15.8 °F 80% 30.20 in 2.5 mi NE 12.7 mph - 0.00 in Snow Light Snow
5:15 AM 21.2 °F 10.1 °F 15.8 °F 80% 30.19 in 1.8 mi NE 10.4 mph - 0.00 in Snow Light Snow
5:53 AM 21.0 °F 9.3 °F 15.1 °F 78% 30.21 in 1.8 mi NE 11.5 mph - 0.00 in Snow Light Snow
6:37 AM 21.2 °F 7.8 °F 15.8 °F 80% 30.18 in 2.5 mi ENE 15.0 mph 21.9 mph 0.00 in Snow Light Snow
6:44 AM 21.2 °F 7.3 °F 15.8 °F 80% 30.18 in 2.5 mi NE 16.1 mph - 0.00 in Snow Light Snow
6:53 AM 21.9 °F 9.8 °F 16.0 °F 78% 30.21 in 2.5 mi ENE 12.7 mph - 0.00 in Snow Light Snow
7:07 AM 21.2 °F 7.8 °F 15.8 °F 80% 30.17 in 1.8 mi ENE 15.0 mph 20.7 mph 0.00 in Snow Light Snow
7:51 AM 21.2 °F 7.8 °F 15.8 °F 80% 30.17 in 2.5 mi ENE 15.0 mph - 0.00 in Snow Light Snow
7:53 AM 21.9 °F 8.7 °F 15.1 °F 75% 30.19 in 3.0 mi ENE 15.0 mph - 0.00 in Snow Light Snow
8:26 AM 21.2 °F 8.9 °F 15.8 °F 80% 30.15 in 2.0 mi ENE 12.7 mph - 0.00 in Snow Light Snow
8:53 AM 21.9 °F 8.2 °F 15.1 °F 75% 30.17 in 3.0 mi ENE 16.1 mph - 0.00 in Snow Light Snow
9:00 AM 21.2 °F 8.9 °F 15.8 °F 80% 30.15 in 2.0 mi ENE 12.7 mph 20.7 mph 0.00 in Snow Light Snow
9:15 AM 21.2 °F 7.3 °F 15.8 °F 80% 30.16 in 1.5 mi ENE 16.1 mph - 0.00 in Snow Light Snow
9:30 AM 21.2 °F 7.8 °F 15.8 °F 80% 30.15 in 0.8 mi ENE 15.0 mph 21.9 mph 0.00 in Snow Light Snow
9:43 AM 21.2 °F 7.3 °F 15.8 °F 80% 30.13 in 0.5 mi ENE 16.1 mph - 0.00 in Snow Snow
9:53 AM 21.9 °F 9.2 °F 15.1 °F 75% 30.15 in 0.5 mi ENE 13.8 mph - 0.00 in Snow Snow
10:09 AM 21.2 °F 6.8 °F 15.8 °F 80% 30.12 in 0.8 mi NE 17.3 mph - 0.00 in Snow Light Snow
10:38 AM 21.2 °F 8.3 °F 15.8 °F 80% 30.11 in 0.5 mi ENE 13.8 mph 20.7 mph 0.00 in Snow Snow
10:53 AM 21.9 °F 7.8 °F 15.1 °F 75% 30.12 in 0.5 mi ENE 17.3 mph 23.0 mph 0.00 in Snow Snow
11:22 AM 21.2 °F 7.3 °F 15.8 °F 80% 30.08 in 0.8 mi ENE 16.1 mph - 0.00 in Snow Light Snow
11:42 AM 21.2 °F 7.3 °F 15.8 °F 80% 30.06 in 0.5 mi ENE 16.1 mph - 0.00 in Snow Snow
11:53 AM 21.9 °F 7.8 °F 16.0 °F 78% 30.07 in 0.5 mi NE 17.3 mph - 0.00 in Snow Snow
12:53 PM 21.9 °F 7.8 °F 16.0 °F 78% 30.00 in 0.5 mi NE 17.3 mph - 0.00 in Snow Snow
1:53 PM 23.0 °F 10.6 °F 17.1 °F 78% 29.95 in 0.5 mi NE 13.8 mph - 0.00 in Snow Snow
2:53 PM 23.0 °F 9.2 °F 17.1 °F 78% 29.91 in 0.5 mi NE 17.3 mph 21.9 mph 0.00 in Snow Snow
3:16 PM 23.0 °F 10.1 °F 17.6 °F 80% 29.88 in 0.8 mi NE 15.0 mph - 0.00 in Snow Light Snow
3:53 PM 23.0 °F 10.1 °F 17.1 °F 78% 29.91 in 0.5 mi NE 15.0 mph - 0.00 in Snow Snow
4:53 PM 21.9 °F 8.7 °F 16.0 °F 78% 29.89 in 0.5 mi NE 15.0 mph - 0.00 in Snow Snow
5:18 PM 21.2 °F 8.9 °F 15.8 °F 80% 29.86 in 1.0 mi NNE 12.7 mph - 0.00 in Snow Snow
5:25 PM 21.2 °F 8.9 °F 15.8 °F 80% 29.86 in 0.5 mi NNE 12.7 mph - 0.00 in Snow Snow
5:53 PM 21.9 °F 9.8 °F 16.0 °F 78% 29.87 in 0.5 mi NNE 12.7 mph - 0.00 in Snow Snow
6:24 PM 21.2 °F 9.5 °F 15.8 °F 80% 29.83 in 1.0 mi NNE 11.5 mph - 0.00 in Snow Light Snow
6:38 PM 21.2 °F 8.9 °F 15.8 °F 80% 29.83 in 1.2 mi NNE 12.7 mph - 0.00 in Snow Light Snow
6:53 PM 21.9 °F 10.4 °F 16.0 °F 78% 29.86 in 1.0 mi NNE 11.5 mph - 0.00 in Snow Light Snow
7:53 PM 23.0 °F 11.7 °F 17.1 °F 78% 29.84 in 1.2 mi NNE 11.5 mph - 0.00 in Snow Light Snow
8:06 PM 23.0 °F 11.7 °F 17.6 °F 80% 29.81 in 2.5 mi NNE 11.5 mph - 0.00 in Snow Light Snow
8:16 PM 23.0 °F 11.7 °F 17.6 °F 80% 29.81 in 3.0 mi North 11.5 mph - 0.00 in Snow Light Snow
8:53 PM 24.1 °F 13.1 °F 18.0 °F 77% 29.83 in 4.0 mi North 11.5 mph - 0.00 in Snow Light Snow
9:08 PM 24.8 °F 16.1 °F 17.6 °F 74% 29.81 in 6.0 mi North 8.1 mph - 0.00 in Snow Light Snow
9:53 PM 24.1 °F 15.2 °F 18.0 °F 77% 29.82 in 4.0 mi North 8.1 mph - 0.00 in Snow Light Snow
10:53 PM 24.1 °F 13.7 °F 18.0 °F 77% 29.83 in 2.5 mi NNW 10.4 mph - 0.00 in Snow Light Snow
11:09 PM 24.8 °F 15.3 °F 17.6 °F 74% 29.80 in 2.5 mi NNW 9.2 mph - 0.00 in Snow Light Snow
11:35 PM 23.0 °F 13.1 °F 17.6 °F 80% 29.80 in 4.0 mi NNW 9.2 mph - 0.00 in Snow Light Snow
11:53 PM 21.9 °F 13.4 °F 17.1 °F 82% 29.82 in 8.0 mi NNW 6.9 mph - 0.00 in   Mostly Cloudy